Regional Weather Roundup
Issued by NWS

Home | Current Version | Previous Version | Text Only | Print | Product List | Glossary On
Versions: 1 2 3 4 5 6 7 8 9 10 11 12 13 14 15 16 17 18 19 20 21 22 23 24 25 26 27 28 29 30 31 32 33 34 35 36 37 38 39 40 41 42 43 44 45 46 47 48
000
ASUS46 KPQR 210810
RWROR

OREGON REGIONAL WEATHER ROUNDUP
NATIONAL WEATHER SERVICE PORTLAND OR
100 AM PDT SUN SEP 21 2014

NOTE: "FAIR" INDICATES FEW OR NO CLOUDS BELOW 12,000 FEET WITH
NO SIGNIFICANT WEATHER AND/OR OBSTRUCTIONS TO VISIBILITY.

ORZ001>013-210900-
NORTHWEST OREGON


CITY           SKY/WX    TMP DP  RH WIND       PRES   REMARKS
ASTORIA        CLEAR     56  53  90 SW9       29.85R
NEWPORT        CLOUDY    57  55  94 S15       29.93S
PORTLAND       PTCLDY    69  58  67 W5        29.83S
VANCOUVER WA   CLEAR     65  56  72 CALM      29.83S
SCAPPOOSE      CLEAR     62  53  72 W3        29.83S
HILLSBORO      CLEAR     64  52  64 W5        29.82F
AURORA         CLEAR     66  51  58 S3        29.83S
MCMINNVILLE    CLEAR     63  54  72 W6        29.83S
SALEM          CLEAR     66  54  65 S5        29.82R
CORVALLIS      CLEAR     64  55  72 W10       29.87S
EUGENE         CLEAR     63  54  72 S9        29.87S
$$

ORZ021-028-210900-
SOUTHWEST OREGON


CITY           SKY/WX    TMP DP  RH WIND       PRES   REMARKS
NORTH BEND     CLOUDY    57  57 100 NW5       29.91S
BROOKINGS      CLOUDY    60  59  97 SE7       29.95R FOG
ROSEBURG       CLEAR     70  56  61 CALM      29.87R
SEXTON SUMMIT  CLEAR     67  49  52 SW5       30.02R
MEDFORD        CLEAR     72  48  42 CALM      29.86S
$$

ORZ009-041-210900-
COLUMBIA GORGE


CITY           SKY/WX    TMP DP  RH WIND       PRES   REMARKS
TROUTDALE      CLEAR     79  49  34 E14       29.82S
THE DALLES     CLEAR     64  47  53 SE5       29.93S
$$

ORZ029>031-042>050-061>064-210900-
EASTERN OREGON


CITY           SKY/WX    TMP DP  RH WIND       PRES   REMARKS
REDMOND        CLEAR     54  42  64 S3        30.05S
BEND           SUNNY     57  45  62 CALM      30.08S
KLAMATH FALLS  PTCLDY    65  47  52 NE9       30.02R
LAKEVIEW       PTCLDY    54  34  47 N5        30.10S
HERMISTON      CLEAR     58  48  69 S5        29.92F
PENDLETON      CLEAR     60  44  55 SE9       29.95F
JOHN DAY       SUNNY     64  40  40 CALM      30.06S
MEACHAM        CLEAR     45  40  82 CALM      30.08F
LA GRANDE      CLEAR     55  34  44 CALM      30.03F
BAKER CITY     CLEAR     47  40  76 CALM      30.07S
BURNS          NOT AVBL
ROME             N/A     64  38  38 NE8       30.07S
ONTARIO        CLEAR     57  42  57 SW6       30.01R
$$


USA.gov is the U.S. government's official web portal to all federal, state and local government web resources and services.